FW6908 Weather Reports


time (UTC)temp
C
wind
direction
speed
KPH
gust
KPH
rain 1hr
cm
rain 24hr
cm
rain mn
cm
humidity
%
barometer
mb
20260831054031 26 88 12.9 27.4 0.00 0.00 0.00 57 1017.1
20260831053529 26 76 12.9 27.4 0.00 0.00 0.00 58 1017.0
20260831053028 26 98 17.7 24.1 0.00 0.00 0.00 58 1017.1
20260831052526 26 96 14.5 29.0 0.00 0.00 0.00 59 1017.0
20260831052024 25 67 14.5 29.0 0.00 0.00 0.00 59 1017.1
20260831051533 25 91 16.1 24.1 0.00 0.00 0.00 60 1017.1
20260831051021 25 83 12.9 22.5 0.00 0.00 0.00 60 1017.0
20260831050526 25 92 16.1 22.5 0.00 0.00 0.00 60 1016.9
20260831050019 25 69 12.9 22.5 0.00 0.00 0.00 60 1017.0
20260831045521 25 99 9.7 20.9 0.00 0.00 0.00 58 1017.0
20260831045016 25 84 4.8 12.9 0.00 0.00 0.00 56 1016.9
20260831044517 25 76 3.2 9.7 0.00 0.00 0.00 55 1016.8
20260831044014 25 19 6.4 12.9 0.00 0.00 0.00 55 1016.9
20260831043512 25 58 4.8 12.9 0.00 0.00 0.00 54 1016.9
20260831043011 25 15 3.2 9.7 0.00 0.00 0.00 54 1016.9
20260831042510 24 45 3.2 8.0 0.00 0.00 0.00 54 1016.8
20260831042009 24 58 3.2 12.9 0.00 0.00 0.00 55 1016.8
20260831041511 23 38 6.4 12.9 0.00 0.00 0.00 55 1016.8
20260831041009 23 36 4.8 11.3 0.00 0.00 0.00 55 1016.7
20260831040506 23 28 4.8 9.7 0.00 0.00 0.00 55 1016.8
20260831040015 23 38 4.8 9.7 0.00 0.00 0.00 55 1016.8
20260831035505 23 13 4.8 9.7 0.00 0.00 0.00 55 1016.8
20260831035005 23 5 6.4 9.7 0.00 0.00 0.00 55 1016.9
20260831034506 24 23 4.8 8.0 0.00 0.00 0.00 55 1016.8
20260831034005 24 17 3.2 8.0 0.00 0.00 0.00 54 1016.8
20260831033504 24 17 3.2 9.7 0.00 0.00 0.00 53 1016.9
20260831033007 25 36 4.8 17.7 0.00 0.00 0.00 52 1016.8
20260831032504 25 86 11.3 17.7 0.00 0.00 0.00 51 1016.8
20260831032003 25 79 9.7 16.1 0.00 0.00 0.00 51 1016.9
20260831031503 25 74 3.2 11.3 0.00 0.00 0.00 51 1016.8
20260831031003 25 101 4.8 11.3 0.00 0.00 0.00 51 1016.8
20260831030503 25 73 6.4 19.3 0.00 0.00 0.00 50 1016.7
20260831030003 26 102 11.3 22.5 0.00 0.00 0.00 50 1016.7
20260831025502 25 66 12.9 22.5 0.00 0.00 0.00 50 1016.7
20260831025002 25 143 12.9 20.9 0.00 0.00 0.00 50 1016.6
20260831024502 25 82 11.3 22.5 0.00 0.00 0.00 51 1016.6
20260831024000 25 81 12.9 22.5 0.00 0.00 0.00 51 1016.6
20260831023500 25 91 12.9 20.9 0.00 0.00 0.00 51 1016.6
20260831023104 25 64 14.5 20.9 0.00 0.00 0.00 52 1016.6
20260831022559 25 109 11.3 19.3 0.00 0.00 0.00 53 1016.6
20260831022059 25 72 8.0 16.1 0.00 0.00 0.00 53 1016.7
20260831021601 24 84 9.7 14.5 0.00 0.00 0.00 55 1016.6
20260831021059 24 73 4.8 9.7 0.00 0.00 0.00 57 1016.7
20260831020559 24 53 1.6 8.0 0.00 0.00 0.00 57 1016.8
20260831020059 23 41 4.8 9.7 0.00 0.00 0.00 57 1016.8
20260831015600 23 37 4.8 9.7 0.00 0.00 0.00 58 1016.8
20260831015058 23 30 6.4 8.0 0.00 0.00 0.00 58 1016.8
20260831014607 23 32 4.8 9.7 0.00 0.00 0.00 59 1016.8
20260831014057 23 27 6.4 9.7 0.00 0.00 0.00 59 1016.8
20260831013556 23 32 4.8 8.0 0.00 0.00 0.00 59 1016.8
20260831013057 23 31 4.8 12.9 0.00 0.00 0.00 59 1016.8
20260831012556 23 46 6.4 14.5 0.00 0.00 0.00 59 1016.8
20260831012054 23 38 8.0 14.5 0.00 0.00 0.00 58 1016.9
20260831011559 23 57 6.4 12.9 0.00 0.00 0.00 58 1016.8
20260831011052 24 32 6.4 14.5 0.00 0.00 0.00 58 1016.9
20260831010553 24 33 9.7 14.5 0.00 0.00 0.00 57 1017.0
20260831005550 25 69 4.8 14.5 0.00 0.00 0.00 54 1017.0
20260831005049 25 110 4.8 17.7 0.00 0.00 0.00 54 1017.0
20260831004549 25 97 8.0 17.7 0.00 0.00 0.00 55 1017.0
20260831004049 25 109 6.4 19.3 0.00 0.00 0.00 55 1016.9
20260831003550 25 106 11.3 20.9 0.00 0.00 0.00 55 1017.0
20260831003050 25 98 12.9 20.9 0.00 0.00 0.00 56 1017.1
20260831002547 25 87 8.0 14.5 0.00 0.00 0.00 57 1017.1
20260831002048 25 52 4.8 11.3 0.00 0.00 0.00 58 1017.1
20260831001546 25 53 4.8 12.9 0.00 0.00 0.00 57 1017.1
20260831001046 25 61 6.4 12.9 0.00 0.00 0.00 57 1017.2
20260831000546 25 55 3.2 9.7 0.00 0.00 0.00 57 1017.2
20260831000046 25 46 3.2 8.0 0.00 0.00 0.00 57 1017.2
20260830235548 25 19 1.6 4.8 0.00 0.00 0.00 57 1017.1
20260830235048 25 348 0.0 4.8 0.00 0.00 0.00 57 1017.2
20260830234546 25 355 0.0 6.4 0.00 0.00 0.00 57 1017.2
20260830234044 25 350 3.2 6.4 0.00 0.00 0.00 57 1017.1
20260830233544 25 355 4.8 8.0 0.00 0.00 0.00 56 1017.3
20260830233045 25 15 4.8 8.0 0.00 0.00 0.00 56 1017.2
20260830232543 25 360 4.8 8.0 0.00 0.00 0.00 56 1017.2
20260830232043 25 5 4.8 8.0 0.00 0.00 0.00 56 1017.2
20260830231543 25 46 0.0 3.2 0.00 0.00 0.00 56 1017.2
20260830231043 25 46 0.0 3.2 0.00 0.00 0.00 56 1017.2
20260830230542 25 46 0.0 3.2 0.00 0.00 0.00 56 1017.3
20260830230042 25 45 0.0 4.8 0.00 0.00 0.00 56 1017.3
20260830225541 25 40 1.6 8.0 0.00 0.00 0.00 55 1017.4
20260830225041 25 40 3.2 8.0 0.00 0.00 0.00 56 1017.3
20260830224542 25 55 3.2 8.0 0.00 0.00 0.00 56 1017.3
20260830224042 25 55 3.2 9.7 0.00 0.00 0.00 56 1017.3
20260830223540 25 28 6.4 9.7 0.00 0.00 0.00 55 1017.4
20260830223039 25 5 4.8 8.0 0.00 0.00 0.00 55 1017.5
20260830222538 25 5 3.2 6.4 0.00 0.00 0.00 55 1017.5
20260830222038 25 5 1.6 3.2 0.00 0.00 0.00 54 1017.5
20260830221540 25 5 1.6 4.8 0.00 0.00 0.00 53 1017.6
20260830221037 25 9 1.6 8.0 0.00 0.00 0.00 52 1017.6
20260830220537 25 5 3.2 8.0 0.00 0.00 0.00 52 1017.6
20260830220037 25 13 1.6 8.0 0.00 0.00 0.00 52 1017.6
20260830215536 25 40 3.2 8.0 0.00 0.00 0.00 51 1017.6
20260830215036 25 38 4.8 8.0 0.00 0.00 0.00 51 1017.6
20260830214535 25 82 3.2 8.0 0.00 0.00 0.00 52 1017.6
20260830214035 25 59 1.6 6.4 0.00 0.00 0.00 52 1017.8
20260830213637 25 58 1.6 8.0 0.00 0.00 0.00 53 1017.6
20260830213034 25 65 3.2 9.7 0.00 0.00 0.00 53 1017.6
20260830212533 25 52 6.4 9.7 0.00 0.00 0.00 53 1017.6
20260830212032 25 16 4.8 8.0 0.00 0.00 0.00 53 1017.6
20260830210529 25 74 3.2 6.4 0.00 0.00 0.00 52 1017.6
20260830210031 25 47 1.6 8.0 0.00 0.00 0.00 52 1017.6
20260830205528 25 47 3.2 8.0 0.00 0.00 0.00 52 1017.6
20260830205029 25 69 3.2 12.9 0.00 0.00 0.00 53 1017.6
20260830204528 25 76 6.4 12.9 0.00 0.00 0.00 52 1017.6
20260830204028 25 65 4.8 12.9 0.00 0.00 0.00 53 1017.6
20260830203528 25 5 6.4 12.9 0.00 0.00 0.00 52 1017.7
20260830203027 26 5 4.8 12.9 0.00 0.00 0.00 52 1017.5
20260830202527 26 43 6.4 12.9 0.00 0.00 0.00 51 1017.5
20260830202030 26 22 3.2 6.4 0.00 0.00 0.00 50 1017.4
20260830201526 26 59 4.8 9.7 0.00 0.00 0.00 50 1017.4
20260830201026 26 61 1.6 6.4 0.00 0.00 0.00 50 1017.3
20260830200526 26 46 1.6 9.7 0.00 0.00 0.00 51 1017.3
20260830200027 26 52 4.8 9.7 0.00 0.00 0.00 51 1017.2
20260830195526 26 18 4.8 9.7 0.00 0.00 0.00 50 1017.2
20260830195026 26 50 4.8 9.7 0.00 0.00 0.00 49 1017.2
20260830194526 26 51 3.2 16.1 0.00 0.00 0.00 50 1017.3
20260830194026 26 67 6.4 16.1 0.00 0.00 0.00 50 1017.3
20260830193525 26 48 4.8 16.1 0.00 0.00 0.00 51 1017.2
20260830193025 26 35 6.4 16.1 0.00 0.00 0.00 51 1017.2
20260830192525 26 46 6.4 14.5 0.00 0.00 0.00 51 1017.1
20260830192025 26 32 6.4 14.5 0.00 0.00 0.00 51 1017.1
20260830191525 26 20 8.0 14.5 0.00 0.00 0.00 51 1017.1
20260830191027 26 16 8.0 14.5 0.00 0.00 0.00 50 1017.2
20260830190524 27 39 8.0 12.9 0.00 0.00 0.00 50 1017.2
20260830190026 27 9 4.8 16.1 0.00 0.00 0.00 49 1017.1
20260830185524 27 57 8.0 16.1 0.00 0.00 0.00 49 1017.1
20260830185027 26 59 8.0 11.3 0.00 0.00 0.00 51 1017.1
20260830184524 26 25 6.4 9.7 0.00 0.00 0.00 51 1017.0
20260830184025 26 27 6.4 9.7 0.00 0.00 0.00 51 1017.0
20260830183523 26 28 6.4 11.3 0.00 0.00 0.00 52 1016.9
20260830183032 26 46 4.8 12.9 0.00 0.00 0.00 51 1016.8
20260830182523 27 10 6.4 12.9 0.00 0.00 0.00 51 1016.8
20260830182026 27 20 6.4 11.3 0.00 0.00 0.00 51 1016.7
20260830181523 27 41 4.8 11.3 0.00 0.00 0.00 51 1016.8
20260830181022 27 61 6.4 12.9 0.00 0.00 0.00 50 1016.8
20260830180522 27 26 4.8 11.3 0.00 0.00 0.00 50 1016.7
20260830180032 27 30 6.4 14.5 0.00 0.00 0.00 50 1016.6
20260830175522 27 17 8.0 14.5 0.00 0.00 0.00 50 1016.6
20260830175022 27 51 6.4 9.7 0.00 0.00 0.00 49 1016.6
20260830174527 28 39 4.8 9.7 0.00 0.00 0.00 48 1016.6
20260830174021 28 23 4.8 14.5 0.00 0.00 0.00 47 1016.6
20260830173521 28 10 4.8 14.5 0.00 0.00 0.00 47 1016.5
20260830173021 28 51 6.4 16.1 0.00 0.00 0.00 47 1016.4
20260830172522 28 76 8.0 19.3 0.00 0.00 0.00 48 1016.3
20260830172022 28 68 11.3 19.3 0.00 0.00 0.00 48 1016.2
20260830171522 28 44 9.7 17.7 0.00 0.00 0.00 48 1016.2
20260830171021 28 66 6.4 14.5 0.00 0.00 0.00 48 1016.1
20260830170523 28 50 6.4 14.5 0.00 0.00 0.00 48 1016.2
20260830170021 28 80 3.2 11.3 0.00 0.00 0.00 49 1016.2
20260830165520 28 89 3.2 6.4 0.00 0.00 0.00 51 1016.2
20260830165020 28 82 0.0 9.7 0.00 0.00 0.00 57 1016.3
20260830164519 28 94 3.2 9.7 0.00 0.00 0.00 57 1016.3
20260830164021 28 153 1.6 14.5 0.00 0.00 0.00 55 1016.3
20260830163519 29 147 6.4 14.5 0.00 0.00 0.00 55 1016.3
20260830163118 29 162 4.8 11.3 0.00 0.00 0.00 55 1016.3
20260830162518 29 214 8.0 14.5 0.00 0.00 0.00 55 1016.2
20260830162019 29 181 3.2 12.9 0.00 0.00 0.00 54 1016.2
20260830161517 29 315 3.2 11.3 0.00 0.00 0.00 55 1016.2
20260830161019 29 264 6.4 16.1 0.00 0.00 0.00 55 1016.2
20260830160518 29 263 9.7 16.1 0.00 0.00 0.00 54 1016.2
20260830160035 30 273 8.0 16.1 0.00 0.00 0.00 53 1016.2
20260830155517 30 244 8.0 16.1 0.00 0.00 0.00 52 1016.1
20260830155017 30 213 8.0 16.1 0.00 0.00 0.00 52 1016.0
20260830154518 30 214 11.3 17.7 0.00 0.00 0.00 52 1016.0
20260830154020 30 200 12.9 17.7 0.00 0.00 0.00 51 1015.9
20260830153518 31 194 8.0 16.1 0.00 0.00 0.00 50 1015.9
20260830153016 31 248 6.4 16.1 0.00 0.00 0.00 50 1015.8
20260830152514 30 273 8.0 16.1 0.00 0.00 0.00 50 1015.8
20260830152014 31 232 8.0 12.9 0.00 0.00 0.00 49 1015.7
20260830151513 31 309 3.2 12.9 0.00 0.00 0.00 47 1015.8
20260830151013 31 221 6.4 12.9 0.00 0.00 0.00 46 1015.7
20260830150512 32 303 4.8 9.7 0.00 0.00 0.00 44 1015.7
20260830150016 31 30 1.6 12.9 0.00 0.00 0.00 43 1015.8
20260830145510 32 109 3.2 12.9 0.00 0.00 0.00 42 1015.7
20260830145010 32 64 3.2 14.5 0.00 0.00 0.00 42 1015.7
20260830144508 32 56 8.0 14.5 0.00 0.00 0.00 41 1015.6
20260830144008 32 49 3.2 12.9 0.00 0.00 0.00 41 1015.6
20260830143508 32 111 0.0 14.5 0.00 0.00 0.00 41 1015.7
20260830143013 32 29 4.8 14.5 0.00 0.00 0.00 41 1015.7
20260830142510 32 133 1.6 11.3 0.00 0.00 0.00 41 1015.7
20260830142006 32 41 3.2 11.3 0.00 0.00 0.00 41 1015.6
20260830141504 32 110 4.8 9.7 0.00 0.00 0.00 42 1015.7
20260830141003 31 218 1.6 4.8 0.00 0.00 0.00 42 1015.7
20260830140503 31 83 0.0 4.8 0.00 0.00 0.00 43 1015.8
20260830140003 31 71 0.0 12.9 0.00 0.00 0.00 42 1015.7
20260830135502 31 61 6.4 16.1 0.00 0.00 0.00 42 1015.8
20260830135002 31 82 9.7 16.1 0.00 0.00 0.00 43 1015.9
20260830134506 31 135 6.4 12.9 0.00 0.00 0.00 44 1015.8
20260830134005 31 120 1.6 8.0 0.00 0.00 0.00 44 1016.0
20260830133501 30 127 1.6 16.1 0.00 0.00 0.00 45 1016.0
20260830133101 30 51 4.8 20.9 0.00 0.00 0.00 45 1016.0
20260830132559 30 129 9.7 20.9 0.00 0.00 0.00 45 1016.0
20260830132059 30 96 9.7 25.7 0.00 0.00 0.00 45 1016.0
20260830131559 31 60 11.3 25.7 0.00 0.00 0.00 43 1015.8
20260830131159 31 123 8.0 16.1 0.00 0.00 0.00 42 1015.9
20260830130559 31 63 11.3 24.1 0.00 0.00 0.00 42 1015.9
20260830130107 31 136 14.5 24.1 0.00 0.00 0.00 41 1015.8
20260830125600 31 112 16.1 22.5 0.00 0.00 0.00 40 1015.8
20260830125058 32 30 12.9 25.7 0.00 0.00 0.00 40 1015.7
20260830124558 32 47 12.9 20.9 0.00 0.00 0.00 40 1015.8
20260830124057 32 110 9.7 19.3 0.00 0.00 0.00 40 1015.8
20260830123600 32 86 11.3 17.7 0.00 0.00 0.00 39 1015.8
20260830123056 32 113 3.2 14.5 0.00 0.00 0.00 38 1015.9
20260830122555 32 323 3.2 14.5 0.00 0.00 0.00 37 1015.9
20260830122055 33 109 6.4 17.7 0.00 0.00 0.00 37 1016.0
20260830121601 33 40 4.8 19.3 0.00 0.00 0.00 38 1016.0
20260830121051 33 84 9.7 19.3 0.00 0.00 0.00 38 1016.2
20260830120550 33 65 3.2 16.1 0.00 0.00 0.00 38 1016.1
20260830120049 33 55 6.4 16.1 0.00 0.00 0.00 36 1016.3
20260830115547 33 49 4.8 12.9 0.00 0.00 0.00 36 1016.2
20260830115045 33 343 0.0 8.0 0.00 0.00 0.00 37 1016.3
20260830114546 32 311 1.6 8.0 0.00 0.00 0.00 38 1016.3
20260830114045 32 269 4.8 8.0 0.00 0.00 0.00 37 1016.3
20260830113544 32 195 1.6 9.7 0.00 0.00 0.00 38 1016.3
20260830113043 32 173 3.2 11.3 0.00 0.00 0.00 39 1016.3
20260830112543 32 196 6.4 11.3 0.00 0.00 0.00 38 1016.3
20260830112044 32 105 4.8 14.5 0.00 0.00 0.00 37 1016.4
20260830111545 32 43 3.2 16.1 0.00 0.00 0.00 36 1016.4
20260830111044 32 105 1.6 16.1 0.00 0.00 0.00 37 1016.4
20260830110541 33 108 1.6 9.7 0.00 0.00 0.00 36 1016.5
20260830110041 32 201 1.6 12.9 0.00 0.00 0.00 36 1016.5
20260830105538 32 194 0.0 12.9 0.00 0.00 0.00 37 1016.6
20260830105037 32 116 1.6 14.5 0.00 0.00 0.00 37 1016.6
20260830104538 32 78 8.0 17.7 0.00 0.00 0.00 36 1016.6
20260830104035 31 102 3.2 14.5 0.00 0.00 0.00 37 1016.7
20260830103535 31 93 3.2 14.5 0.00 0.00 0.00 37 1016.7
20260830103039 32 98 8.0 16.1 0.00 0.00 0.00 36 1016.8
20260830102533 32 11 8.0 16.1 0.00 0.00 0.00 37 1016.9
20260830102033 32 28 3.2 14.5 0.00 0.00 0.00 36 1017.0
20260830101531 32 92 11.3 16.1 0.00 0.00 0.00 36 1017.1
20260830101031 32 94 9.7 16.1 0.00 0.00 0.00 36 1017.1
20260830100533 31 146 8.0 17.7 0.00 0.00 0.00 36 1017.2
20260830100034 31 24 9.7 20.9 0.00 0.00 0.00 37 1017.1
20260830095628 31 82 11.3 22.5 0.00 0.00 0.00 37 1017.1
20260830095027 31 106 11.3 22.5 0.00 0.00 0.00 38 1017.1
20260830094529 31 127 9.7 19.3 0.00 0.00 0.00 37 1017.1
20260830094024 31 58 11.3 24.1 0.00 0.00 0.00 36 1017.3
20260830093523 31 88 6.4 22.5 0.00 0.00 0.00 38 1017.2
20260830093023 31 99 12.9 24.1 0.00 0.00 0.00 37 1017.2
20260830092522 31 49 9.7 24.1 0.00 0.00 0.00 36 1017.2
20260830092020 31 93 12.9 20.9 0.00 0.00 0.00 36 1017.2
20260830091529 31 125 11.3 22.5 0.00 0.00 0.00 37 1017.3
20260830091019 31 52 12.9 22.5 0.00 0.00 0.00 36 1017.2
20260830090520 31 87 6.4 19.3 0.00 0.00 0.00 37 1017.3
20260830090016 31 77 8.0 17.7 0.00 0.00 0.00 37 1017.3
20260830085515 31 96 6.4 17.7 0.00 0.00 0.00 39 1017.3
20260830085013 31 103 4.8 11.3 0.00 0.00 0.00 40 1017.4
20260830084512 30 94 3.2 12.9 0.00 0.00 0.00 42 1017.3
20260830084012 30 138 6.4 12.9 0.00 0.00 0.00 41 1017.4
20260830083512 29 164 4.8 12.9 0.00 0.00 0.00 43 1017.3
20260830083011 29 98 8.0 12.9 0.00 0.00 0.00 43 1017.3
20260830082512 29 119 3.2 11.3 0.00 0.00 0.00 43 1017.3
20260830082008 29 37 4.8 12.9 0.00 0.00 0.00 43 1017.5
20260830081508 28 109 4.8 12.9 0.00 0.00 0.00 44 1017.4
20260830081008 28 111 6.4 12.9 0.00 0.00 0.00 44 1017.4
20260830080508 29 130 6.4 12.9 0.00 0.00 0.00 43 1017.5
20260830080008 29 19 3.2 16.1 0.00 0.00 0.00 43 1017.6
20260830075511 29 55 9.7 16.1 0.00 0.00 0.00 41 1017.6
20260830075006 29 91 3.2 19.3 0.00 0.00 0.00 43 1017.6
20260830074506 28 115 9.7 19.3 0.00 0.00 0.00 43 1017.5
20260830074004 28 98 8.0 14.5 0.00 0.00 0.00 42 1017.5
20260830073502 28 138 6.4 14.5 0.00 0.00 0.00 42 1017.6
20260830073101 28 78 6.4 16.1 0.00 0.00 0.00 42 1017.5
20260830072559 28 58 8.0 16.1 0.00 0.00 0.00 42 1017.6
20260830072058 28 15 4.8 14.5 0.00 0.00 0.00 43 1017.5
20260830071558 28 104 4.8 12.9 0.00 0.00 0.00 43 1017.4
20260830071055 28 71 3.2 9.7 0.00 0.00 0.00 44 1017.4
20260830070554 27 344 4.8 12.9 0.00 0.00 0.00 46 1017.3
20260830070053 27 342 6.4 12.9 0.00 0.00 0.00 45 1017.3
20260830065551 27 63 0.0 8.0 0.00 0.00 0.00 45 1017.3
20260830065051 27 54 3.2 8.0 0.00 0.00 0.00 46 1017.3
20260830064550 27 355 3.2 8.0 0.00 0.00 0.00 46 1017.2
20260830064048 26 298 0.0 6.4 0.00 0.00 0.00 46 1017.3
20260830063548 26 292 1.6 6.4 0.00 0.00 0.00 46 1017.1
20260830063101 27 360 1.6 8.0 0.00 0.00 0.00 47 1017.2
20260830062545 26 26 4.8 9.7 0.00 0.00 0.00 47 1017.2
20260830062044 26 47 6.4 9.7 0.00 0.00 0.00 48 1017.2
20260830061555 26 10 4.8 9.7 0.00 0.00 0.00 49 1017.2
20260830061042 26 360 4.8 8.0 0.00 0.00 0.00 48 1017.1
20260830060541 26 95 3.2 8.0 0.00 0.00 0.00 48 1017.2
20260830060040 26 24 0.0 8.0 0.00 0.00 0.00 50 1017.2
20260830055539 25 5 3.2 6.4 0.00 0.00 0.00 51 1017.3
20260830055039 25 24 1.6 8.0 0.00 0.00 0.00 51 1017.2
20260830054551 25 29 3.2 8.0 0.00 0.00 0.00 51 1017.3